CHANDRAYAAN 2 (44441 NORAD) Tracking and Keplerian Element Data

This shows tracking and keplerian element data for the satellite.

Feedback or suggestion? Click here.




ElementValue
Catalog44441
NameCHANDRAYAAN 2
Epoch Orbit24
Epoch Day230
Epoch Year2019
RAAN14.881
Inclination21.813
Eccentricity0.9751339
Argument of Perigee184.225
Mean Anonmoly135.415
Mean Motion0.09137592
Decay Rate-0.00330169
L11 44441U 19042A 19230.00000000 -.00330169 19998-2 00000+0 0 9998
L22 44441 21.8130 14.8810 9751339 184.2250 135.4150 0.09137592 246

Live tracking and technical data element details for CHANDRAYAAN 2 (NORAD 44441). CHANDRAYAAN 2 can be tracked NOW for your location showing map with azimuth and elevation plus other details from your city location.

Track the satellite on the map from your city or location and see movement details for azimuth, elevation, latitude, longitude, range, height, and movement on the map or in text.







IsCatalogInMostPopularTable: catalog: 44441, numindb: 44
Update: records affected: 1



GetName: 44441 CHANDRAYAAN 2

Hit Count: updated at: Tue, 22 Oct 2019 23:31:11 GMT